Previsão horária em Jungapeo

Hoje, 14 Junho, Segunda-feira

Tempo Temperatura Precipitação Vento Pressão Humidade
00:00 +20°C° 0.2 mm 1 m/s 637 mmHg 91%
01:00 +20°C° 0.2 mm 1 m/s 636 mmHg 90%
02:00 +20°C° 0.2 mm 1 m/s 636 mmHg 89%
03:00 +20°C° 0 mm 1 m/s 636 mmHg 89%
04:00 +19°C° 0 mm 1 m/s 636 mmHg 89%
05:00 +19°C° 0 mm 1 m/s 636 mmHg 89%
06:00 +20°C° 0 mm 1 m/s 637 mmHg 83%
07:00 +22°C° 0 mm 1 m/s 637 mmHg 77%
08:00 +22°C° 0 mm 0 m/s 638 mmHg 71%
09:00 +25°C° 0.2 mm 1 m/s 638 mmHg 67%
10:00 +26°C° 0.2 mm 1 m/s 638 mmHg 63%
11:00 +27°C° 0.2 mm 2 m/s 638 mmHg 60%
12:00 +27°C° 0.7 mm 2 m/s 637 mmHg 62%
13:00 +26°C° 0.7 mm 2 m/s 637 mmHg 64%
14:00 +26°C° 0.7 mm 2 m/s 636 mmHg 67%
15:00 +25°C° 2.2 mm 1 m/s 636 mmHg 71%
16:00 +24°C° 2.2 mm 1 m/s 635 mmHg 76%
17:00 +23°C° 2.2 mm 1 m/s 635 mmHg 81%
18:00 +22°C° 4.1 mm 1 m/s 636 mmHg 85%
19:00 +22°C° 4.1 mm 1 m/s 636 mmHg 89%
20:00 +21°C° 4.1 mm 1 m/s 636 mmHg 92%
21:00 +21°C° 0.2 mm 1 m/s 636 mmHg 91%
22:00 +21°C° 0.2 mm 1 m/s 636 mmHg 91%
23:00 +21°C° 0.2 mm 1 m/s 636 mmHg 90%

Amanhã, 15 Junho, Terça-feira

Tempo Temperatura Precipitação Vento Pressão Humidade
00:00 +20°C° 0.4 mm 1 m/s 636 mmHg 90%
01:00 +18°C° 0.4 mm 0 m/s 636 mmHg 90%
02:00 +18°C° 0.4 mm 0 m/s 636 mmHg 91%
03:00 +18°C° 0.1 mm 0 m/s 636 mmHg 90%
04:00 +19°C° 0.1 mm 1 m/s 636 mmHg 90%
05:00 +19°C° 0.1 mm 1 m/s 636 mmHg 90%
06:00 +21°C° 0 mm 1 m/s 637 mmHg 84%
07:00 +22°C° 0 mm 1 m/s 637 mmHg 78%
08:00 +24°C° 0 mm 1 m/s 638 mmHg 73%
09:00 +24°C° 0.1 mm 1 m/s 638 mmHg 69%
10:00 +25°C° 0.1 mm 1 m/s 638 mmHg 65%
11:00 +26°C° 0.1 mm 2 m/s 638 mmHg 62%
12:00 +26°C° 0.7 mm 2 m/s 637 mmHg 62%
13:00 +26°C° 0.7 mm 2 m/s 637 mmHg 63%
14:00 +27°C° 0.7 mm 1 m/s 636 mmHg 64%
15:00 +26°C° 0.8 mm 1 m/s 636 mmHg 69%
16:00 +25°C° 0.8 mm 1 m/s 636 mmHg 73%
17:00 +24°C° 0.8 mm 1 m/s 636 mmHg 78%
18:00 +23°C° 0.4 mm 1 m/s 636 mmHg 80%
19:00 +21°C° 0.4 mm 2 m/s 636 mmHg 83%
20:00 +20°C° 0.4 mm 2 m/s 636 mmHg 86%
21:00 +20°C° 0.3 mm 2 m/s 636 mmHg 86%
22:00 +19°C° 0.3 mm 2 m/s 636 mmHg 86%
23:00 +19°C° 0.3 mm 2 m/s 636 mmHg 87%

Depois de amanhã, 16 Junho, Quarta-feira

Tempo Temperatura Precipitação Vento Pressão Humidade
00:00 +19°C° 0.1 mm 2 m/s 636 mmHg 86%
01:00 +19°C° 0.1 mm 2 m/s 636 mmHg 86%
02:00 +20°C° 0.1 mm 1 m/s 636 mmHg 85%
03:00 +18°C° 0 mm 2 m/s 636 mmHg 85%
04:00 +17°C° 0 mm 2 m/s 636 mmHg 85%
05:00 +17°C° 0 mm 2 m/s 636 mmHg 85%
06:00 +19°C° 0 mm 2 m/s 636 mmHg 72%
07:00 +22°C° 0 mm 1 m/s 637 mmHg 60%
08:00 +24°C° 0 mm 1 m/s 637 mmHg 47%
09:00 +26°C° 0 mm 1 m/s 638 mmHg 44%
10:00 +28°C° 0 mm 1 m/s 638 mmHg 40%
11:00 +29°C° 0 mm 2 m/s 638 mmHg 36%
12:00 +29°C° 0 mm 2 m/s 637 mmHg 39%
13:00 +29°C° 0 mm 2 m/s 637 mmHg 41%
14:00 +29°C° 0 mm 3 m/s 636 mmHg 43%
15:00 +28°C° 0.2 mm 2 m/s 636 mmHg 50%
16:00 +27°C° 0.2 mm 1 m/s 636 mmHg 56%
17:00 +26°C° 0.2 mm 1 m/s 636 mmHg 63%
18:00 +24°C° 0.1 mm 1 m/s 636 mmHg 67%
19:00 +23°C° 0.1 mm 1 m/s 636 mmHg 71%
20:00 +21°C° 0.1 mm 2 m/s 636 mmHg 75%
21:00 +20°C° 0 mm 2 m/s 636 mmHg 77%
22:00 +19°C° 0 mm 2 m/s 636 mmHg 78%
23:00 +18°C° 0 mm 2 m/s 636 mmHg 80%

17 Junho, Quinta-feira

Tempo Temperatura Precipitação Vento Pressão Humidade
00:00 +18°C° 0 mm 2 m/s 636 mmHg 80%
01:00 +17°C° 0 mm 2 m/s 635 mmHg 81%
02:00 +17°C° 0 mm 2 m/s 635 mmHg 81%
03:00 +17°C° 0 mm 2 m/s 635 mmHg 81%
04:00 +17°C° 0 mm 2 m/s 635 mmHg 81%
05:00 +16°C° 0 mm 2 m/s 635 mmHg 81%
06:00 +19°C° 0 mm 2 m/s 636 mmHg 72%
07:00 +22°C° 0 mm 1 m/s 636 mmHg 63%
08:00 +24°C° 0 mm 1 m/s 637 mmHg 54%
09:00 +26°C° 0 mm 1 m/s 637 mmHg 49%
10:00 +27°C° 0 mm 2 m/s 637 mmHg 45%
11:00 +29°C° 0 mm 2 m/s 637 mmHg 40%
12:00 +29°C° 0.2 mm 2 m/s 637 mmHg 44%
13:00 +28°C° 0.2 mm 2 m/s 636 mmHg 47%
14:00 +28°C° 0.2 mm 2 m/s 636 mmHg 51%
15:00 +27°C° 0.8 mm 2 m/s 635 mmHg 56%
16:00 +26°C° 0.8 mm 1 m/s 635 mmHg 62%
17:00 +24°C° 0.8 mm 1 m/s 635 mmHg 67%
18:00 +24°C° 0.9 mm 1 m/s 635 mmHg 72%
19:00 +23°C° 0.9 mm 1 m/s 635 mmHg 77%
20:00 +22°C° 0.9 mm 1 m/s 635 mmHg 82%
21:00 +21°C° 0.8 mm 1 m/s 636 mmHg 84%
22:00 +21°C° 0.8 mm 1 m/s 636 mmHg 86%
23:00 +19°C° 0.8 mm 2 m/s 636 mmHg 87%

18 Junho, Sexta-feira

Tempo Temperatura Precipitação Vento Pressão Humidade
00:00 +19°C° 0.1 mm 2 m/s 636 mmHg 87%
01:00 +19°C° 0.1 mm 2 m/s 635 mmHg 87%
02:00 +19°C° 0.1 mm 2 m/s 635 mmHg 86%
03:00 +18°C° 0 mm 2 m/s 635 mmHg 86%
04:00 +19°C° 0 mm 1 m/s 635 mmHg 86%
05:00 +19°C° 0 mm 1 m/s 635 mmHg 86%
06:00 +20°C° 0 mm 1 m/s 636 mmHg 82%
07:00 +21°C° 0 mm 1 m/s 636 mmHg 77%
08:00 +21°C° 0 mm 0 m/s 637 mmHg 73%
09:00 +24°C° 0.1 mm 1 m/s 637 mmHg 69%
10:00 +25°C° 0.1 mm 2 m/s 637 mmHg 66%
11:00 +26°C° 0.1 mm 2 m/s 637 mmHg 62%
12:00 +25°C° 0.6 mm 2 m/s 636 mmHg 67%
13:00 +25°C° 0.6 mm 2 m/s 636 mmHg 71%
14:00 +24°C° 0.6 mm 1 m/s 636 mmHg 75%
15:00 +24°C° 0.9 mm 1 m/s 635 mmHg 79%
16:00 +23°C° 0.9 mm 1 m/s 635 mmHg 82%
17:00 +20°C° 0.9 mm 0 m/s 635 mmHg 86%
18:00 +22°C° 1 mm 1 m/s 635 mmHg 88%
19:00 +21°C° 1 mm 1 m/s 636 mmHg 90%
20:00 +21°C° 1 mm 1 m/s 636 mmHg 92%
21:00 +20°C° 0.6 mm 1 m/s 636 mmHg 92%
22:00 +18°C° 0.6 mm 0 m/s 636 mmHg 93%
23:00 +18°C° 0.6 mm 0 m/s 637 mmHg 94%

19 Junho, Sábado

Tempo Temperatura Precipitação Vento Pressão Humidade
00:00 +18°C° 1.3 mm 0 m/s 636 mmHg 94%
01:00 +20°C° 1.3 mm 1 m/s 636 mmHg 94%
02:00 +20°C° 1.3 mm 1 m/s 636 mmHg 94%
03:00 +20°C° 0.4 mm 1 m/s 636 mmHg 93%
04:00 +20°C° 0.4 mm 1 m/s 636 mmHg 93%
05:00 +20°C° 0.4 mm 1 m/s 636 mmHg 93%
06:00 +18°C° 0.1 mm 0 m/s 637 mmHg 90%
07:00 +19°C° 0.1 mm 0 m/s 637 mmHg 88%
08:00 +20°C° 0.1 mm 0 m/s 638 mmHg 85%
09:00 +21°C° 0.1 mm 0 m/s 638 mmHg 80%
10:00 +24°C° 0.1 mm 1 m/s 638 mmHg 75%
11:00 +25°C° 0.1 mm 1 m/s 638 mmHg 70%
12:00 +26°C° 0.3 mm 1 m/s 638 mmHg 68%
13:00 +26°C° 0.3 mm 2 m/s 637 mmHg 66%
14:00 +27°C° 0.3 mm 2 m/s 637 mmHg 64%
15:00 +26°C° 1 mm 2 m/s 637 mmHg 72%
16:00 +24°C° 1 mm 1 m/s 636 mmHg 79%
17:00 +23°C° 1 mm 1 m/s 636 mmHg 87%
18:00 +22°C° 3 mm 1 m/s 636 mmHg 90%
19:00 +22°C° 3 mm 1 m/s 636 mmHg 92%
20:00 +21°C° 3 mm 1 m/s 637 mmHg 95%
21:00 +21°C° 4.4 mm 1 m/s 637 mmHg 95%
22:00 +20°C° 4.4 mm 1 m/s 637 mmHg 95%
23:00 +20°C° 4.4 mm 1 m/s 638 mmHg 95%
Mostrar mais

Necessitamos do seu Consentimento

A Meteoprog e os seus Fornecedores de Serviços podem armazenar e aceder a dados pessoais como cookies, identificadores do dispositivo ou outras tecnologias semelhantes existentes no seu dispositivo e processar estes dados para personalizar conteúdos e anúncios, assim como funcionalidades nas redes sociais e análise de tráfego.

  • Armazenar e/ou aceder a informações no seu dispositivo

    Os cookies, identificadores do dispositivo ou outras informações podem ser armazenados ou acedidos no seu dispositivo, para os fins acima indicados.

  • Anúncios e conteúdos personalizados, medição de anúncios e conteúdos, dados sobre o público-alvo e desenvolvimento de produtos

    Os anúncios e os conteúdos podem ser personalizados com base num perfil. Podem ser adicionados dados adicionais para uma maior personalização dos anúncios e dos conteúdos. A eficácia dos anúncios e dos conteúdos pode ser medida. Podem ser obtidas informações sobre o público que visualizou os anúncios e os conteúdos. Estes dados podem ser usados para desenvolver ou melhorar sistemas, softwares ou a experiência do utilizador.

Ao clicar em "Eu concordo”, permitirá o uso de cookies, identificadores do dispositivo e web beacons mencionados ou outras tecnologias semelhantes. As configurações do navegador do seu dispositivo podem ser alteradas.

Para certos fins, podem ser invocados interesses legítimos ao invés de consentimento. Pode ler mais informação sobre este assunto na nossa Política de Privacidade e Cookies.